Location: Unspecified
(53.3833°N, 0.0000°E)
Time: 01:27:03
(UTC+00:00)

Transit 2A - Visible Passes

Search period start: 04 April 2026 00:00
Search period end: 14 April 2026 00:00
Orbit: 591 x 953 km, 66.7° (Epoch: 29 March)

Date Brightness Start Highest point End Pass type
(mag) Time Alt. Az. Time Alt. Az. Time Alt. Az.
4 Apr 7.1 01:30:35 40° SE 01:30:54 41° ESE 01:36:34 10° NE visible
4 Apr 6.6 03:10:54 31° WSW 03:13:54 61° NW 03:19:52 10° NE visible
4 Apr 7.7 04:52:54 10° WNW 04:58:07 27° NNW 05:03:03 10° NE visible
5 Apr 7.6 00:55:04 30° ESE 00:55:04 30° ESE 00:59:55 10° NE visible
5 Apr 6.4 02:35:23 45° WSW 02:37:24 76° NW 02:43:27 10° NE visible
5 Apr 7.6 04:15:55 10° W 04:21:22 31° NNW 04:26:33 10° NE visible
6 Apr 8.0 00:19:30 22° E 00:19:30 22° E 00:23:07 10° ENE visible
6 Apr 6.3 01:59:49 62° SSW 02:00:57 85° SE 02:07:02 10° NE visible
6 Apr 7.4 03:40:08 15° W 03:44:41 36° NNW 03:50:06 10° NE visible
6 Apr 8.4 23:43:55 15° E 23:43:55 15° E 23:46:01 10° ENE visible
7 Apr 6.4 01:24:14 64° SE 01:24:34 66° ESE 01:30:34 10° NE visible
7 Apr 7.1 03:04:33 23° W 03:08:01 42° NW 03:13:40 10° NE visible
8 Apr 6.8 00:48:36 49° ESE 00:48:36 49° ESE 00:54:04 10° NE visible
8 Apr 6.8 02:28:54 33° W 02:31:26 52° NW 02:37:14 10° NE visible
8 Apr 7.9 04:10:46 10° WNW 04:15:46 25° NNW 04:20:30 10° NE visible
9 Apr 7.3 00:12:56 35° E 00:12:56 35° E 00:17:29 10° NE visible
9 Apr 6.5 01:53:14 48° WSW 01:54:53 65° NW 02:00:50 10° NE visible
9 Apr 7.8 03:33:45 10° W 03:39:00 28° NNW 03:43:58 10° NE visible
9 Apr 7.8 23:37:13 25° E 23:37:13 25° E 23:40:47 10° NE visible
10 Apr 6.3 01:17:31 67° WSW 01:18:23 82° NW 01:24:25 10° NE visible
10 Apr 7.6 02:57:49 14° W 03:02:16 32° NNW 03:07:29 10° NE visible
10 Apr 8.2 23:01:28 18° E 23:01:28 18° E 23:03:53 10° ENE visible
11 Apr 6.2 00:41:46 77° SSE 00:41:57 78° SE 00:47:58 10° NE visible
11 Apr 7.4 02:22:05 21° W 02:25:35 37° NNW 02:31:01 10° NE visible
11 Apr 8.2 04:05:35 10° WNW 04:10:14 22° N 04:14:37 10° NE visible
11 Apr 8.5 22:25:40 12° E 22:25:40 12° E 22:26:36 10° ENE visible
12 Apr 6.5 00:05:58 59° ESE 00:05:58 59° ESE 00:11:30 10° NE visible
12 Apr 7.1 01:46:16 29° W 01:48:56 45° NW 01:54:36 10° NE visible
12 Apr 8.1 03:28:36 10° WNW 03:33:25 24° NNW 03:37:58 10° NE visible
12 Apr 7.0 23:30:07 42° E 23:30:07 42° E 23:34:57 10° NE visible
13 Apr 6.8 01:10:25 40° W 01:12:21 56° NW 01:18:10 10° NE visible
13 Apr 8.0 02:51:35 10° WNW 02:56:37 26° NNW 03:01:23 10° NE visible
13 Apr 7.4 22:54:13 31° E 22:54:13 31° E 22:58:20 10° NE visible
